Погода Благодарный

Погода Благодарный : погода сейчас, прогноз погоды и архив. Всё, что Вы хотите узнать о погоде Благодарный!

Поиск расширенной информации на нашем сайте:

Другие новости

Новости СМИ2

Главная страница сайта

Новости сайта

03.07.2017

Напоминаем, что на нашем специализированном сайте Метеоцентр.Азия вы можете получить высокодетализированные автоматические прогнозы погоды по пунктам России, СНГ и мира в авиационном формате (включающие направление и скорость ветра, видимость, явления погоды, количество и форму облачности, нижнюю и верхнюю границу облачности).


Погода Благодарный - сегодня

Время (UTC), дата Ветер
(°,м/с) 
Видим.   Явления Облачность Т
(°С)
Тd
(°С)
f(%) Тe
(°С)
Pmin
(гПа)
dP
(гПа)
Po
(мм)
O2
(г/м3)
Тmin Tmax R s Состояние
почвы
12 09.12.17 130 (ЮВ) 20000 м    8/0 верхняя 
[Ci]
+6.1 +2.8 79 +6  1023.2  -0.5  752  296           
15 09.12.17 070 (В) 20000 м    ясно 
+0.5 +0.2 98 +1  1024  0.4  753  303    +6.3       
18 09.12.17 050 (СВ) 0050 м  туман  ясно 
-1.2 -1.2 100 -1  1024  -0.2  753  305           
21 09.12.17 050 (СВ) 4000 м  дымка{туман}  ясно 
-3.9 -3.9 100 -3  1024.2  0.1  753  308           
00 10.12.17 290 (З) 0500 м  переохл. туман [диам. изморози 3 мм]  ясно 
-4 -4 100 -4  1024.2  753  308           
03 10.12.17 010 (С) 0500 м  переохл. туман [диам. изморози 5 мм]  ясно 
-4.4 -4.5 99 -4  1023.8  -0.5  752  309  -4.7         
06 10.12.17 тихо ()   0200 м  переохл. туман [диам. изморози 5 мм]  ясно 
-3.9 -3.9 100 -4  1023.6  -0.1  752  308  -5.4         
09 10.12.17 100 (В) 2000 м  дымка{туман}  ясно 
+1.4 +1.4 100 +1  1022  -1.3  751  301           
12 10.12.17 130 (ЮВ) 2000 м  дымка{туман} [диам. изморози 5 мм]  10/10 300 м 
[St]
+3.3 +3.3 100 +2  1020.5  -1.3  750  298           
15 10.12.17 150 (ЮВ) 4000 м  дымка  10/10 300 м 
[St]
+3.1 +3.1 100 +2  1019.9  -0.5  750  298    +3.7  0.0     
18 10.12.17 160 (Ю) 4000 м  дымка  10/10 600 м 
[Sc]
+2.8 +2.8 100 +1  1018.5  -1.4  749  298           
21 10.12.17 140 (ЮВ) 4000 м  дымка  10/10 600 м 
[St]
+3.2 +3 99 +4  1018.1  -0.3  749  298           
00 11.12.17 170 (Ю) 20000 м    10/10 300 м 
[St]
+4.2 +2.6 89 +4  1018.5  0.4  749  297           
03 11.12.17 260 (З) 20000 м    10/10 300 м 
[St]
+4.1 +1.9 86 +5  1021.6  751  298  +2.8         
06 11.12.17 тихо ()   20000 м    10/10 600 м 
[Sc]
+3.8 +2.1 89 +4  1024  2.3  753  299  +2.7         
09 11.12.17 300 (СЗ) 20000 м    8/5 600 м средняя 
[Sc|Ac trans]
+6.2 +0.7 68 +5  1026.3  2.4  755  297           
12 11.12.17 310 (СЗ) 20000 м    8/8 600 м 
[Sc]
+6 -0.5 63 +7  1027.5  1.2  756  298           
15 11.12.17 180 (Ю) 20000 м    ясно 
+3.1 -0.2 79 +4  1028.9  1.2  756  301    +7.2       
18 11.12.17 тихо ()   20000 м    10/10 600 м 
[Sc]
+1.7 -0.3 87 +2  1028.9  -0.2  756  303           
21 11.12.17 290 (З) 20000 м    8/8 600 м 
[Sc]
+1.8 -0.1 87 +3  1028.8  756  303           
00 12.12.17 080 (В) 20000 м    10/10 300 м 
[St]
+1.8 +0.2 89 +3  1028.7  756  303           
03 12.12.17 180 (Ю) 20000 м    10/10 600 м 
[Sc]
+4.6 +0.2 73 +4  1027.9  -0.7  756  299  -0.4         
06 12.12.17 110 (В) 20000 м    10/10 600 м 
[Sc]
+5.1 -0.1 69 +6  1027.9  0.1  756  299           
09 12.12.17 140 (ЮВ) 20000 м    10/10 600 м 
[Sc]
+6 +0.9 70 +7  1028.2  756  298           
12 12.12.17 090 (В) 20000 м    10/10 600 м 
[Sc]
+7.9 +2.7 70 +9  1026.8  -0.3  755  295           
Время (UTC), дата Ветер
(°,м/с) 
Видим.   Явления Облачность Т
(°С)
Тd
(°С)
f(%) Тe
(°С)
Pmin
(гПа)
dP
(гПа)
Po
(мм)
O2
(г/м3)
Тmin Tmax R s Состояние
почвы

Для получения пояснительной информации подведите курсор к названию столбца.

ПОГОДА Благодарный - архив

Всё, что Вы хотите узнать о погоде Благодарный - удобно и подробно!

Выберите нужную дату (начиная с 1 января 2015* года) и нажмите кнопку "Найти".
Будут отображены архивные сводки погоды по пункту Благодарный, начиная с указанной даты.


Отображать данные в формате CSV (для использования в таблицах Excel)


Внимание! Наш архив погоды предназначен исключительно для личного некоммерческого использования в познавательных целях. Если Вам необходимы официальные справки о состоянии погоды (для производственных, юридических, коммерческих и т.п. целей), обращайтесь в органы Росгидромета.

*Примечание: данная дата относится к архиву по метеостанциям СССР (Россия, СНГ, Балтия).
Архив по метеостанциям Зарубежной Европы и Азии (кроме Китая) хранится 10 дней, по другим регионам земного шара (Китай, Африка, Америка, Австралия, Океания) - 1 день.

Благодарный - район местоположения метеостанции


Название, широта, долгота, высота метеостанции:
Благодарный 45.1°ш. 43.4°д. 162 м над ур. моря [Российская Федерация]

Дополнительная информация

В oтличие oт бoльшинства пoгoдных сайтoв мы публикуем пoдрoбную метеoинфoрмацию в детальнoм прoфессиoнальнoм фoрмате.

Характеристики температуры и влажнoсти вoздуха измеряются на высoте 2 м в тени вдали oт зданий и деревьев.
Скoрoсть ветра измеряется на высoте 10 м (на урoвне рoста челoвека скoрoсть ветра ниже в 1.5-2 раза). Если метеoстанция нахoдится в гoрoде или в лесу, тo скoрoсть ветра занижена на 2-4 м/с пo сравнению с oткрытым местoм. Скoрoсть ветра над акватoриями крупных рек и oзёр, а также на вершинах хoлмoв на 2-5 м/с выше, чем в oбычных услoвиях.
Атмoсфернoе давление в разных тoчках местнoсти мoжет значительнo oтличаться oт давления на метеoстанции, в зависимoсти oт услoвий рельефа (при пoдъёме на 10 м давление пoнижается примернo на 1 мм рт.ст.).